This demonstration page uses our WeatherBlox Daily Observations layout. Learn more.

41.55636, -103.73856

Hourly Observations for August 2, 2018

Temp ( °F °C ) Dew Point ( °F °C ) Humidity (%) Winds ( mph kmh ) Pressure ( in mb ) Visibility ( mi km ) Precip ( " mm )
12:58 am 00:58 Clear 56 13.6 50 9.9 79 79 WSW 7 11 30 1016 10 16.09344 0 0
1:58 am 01:58 Clear 56 13.6 49 9.6 77 77 WSW 8 13 29.97 1015 10 16.09344 0 0
2:58 am 02:58 Clear 57 14 50 10 77 77 WSW 8 13 29.97 1015 10 16.09344 0 0
3:58 am 03:58 Clear 56 13.1 49 9.5 79 79 WSW 3 6 29.97 1015 10 16.09344 0 0
4:58 am 04:58 Clear 54 12.1 49 9.3 83 83 WSW 6 9 29.97 1015 10 16.09344 0 0
5:58 am 05:58 Sunny 56 13.4 49 9.2 76 76 WSW 3 6 29.97 1015 10 16.09344 0 0
6:58 am 06:58 Sunny 57 14 50 10 77 77 W 8 13 29.97 1015 10 16.09344 0 0
7:58 am 07:58 Sunny 67 19.7 51 10.4 55 55 W 9 15 29.94 1014 10 16.09344 0 0
8:58 am 08:58 Sunny 73 22.6 51 10.3 46 46 WSW 13 20 29.94 1014 10 16.09344 0 0
9:58 am 09:58 Sunny 79 26.2 49 9.7 35 35 WSW 8 13 29.94 1014 10 16.09344 0 0
10:58 am 10:58 Sunny 83 28.3 44 6.4 25 25 SW 9 15 29.94 1014 10 16.09344 0 0
11:58 am 11:58 Sunny 85 29.2 44 6.6 24 24 SW 6 9 29.91 1013 10 16.09344 0 0
12:58 pm 12:58 Sunny 85 29.7 44 6.8 24 24 W 6 9 29.88 1012 10 16.09344 0 0
1:58 pm 13:58 Sunny 87 30.3 42 5.5 21 21 S 3 6 29.88 1012 10 16.09344 0 0
2:58 pm 14:58 Sunny 88 31.1 42 5.5 20 20 Calm 29.88 1012 10 16.09344 0 0
3:58 pm 15:58 Sunny 88 31.2 44 6.6 21 21 S 7 11 29.85 1011 10 16.09344 0 0
4:58 pm 16:58 Sunny 88 31.1 44 6.5 21 21 S 8 13 29.85 1011 10 16.09344 0 0
5:58 pm 17:58 Mostly Sunny 86 29.8 45 7.4 24 24 S 5 7 29.85 1011 10 16.09344 0 0
6:56 pm 18:56 Sunny 80 26.6 57 13.8 45 45 SE 5 7 29.85 1011 10 16.09344 0 0
7:58 pm 19:58 Sunny 77 25 47 8.4 35 35 SSW 10 17 29.85 1011 10 16.09344 0 0
8:58 pm 20:58 Clear 72 22.1 49 9.2 44 44 SSW 10 17 29.85 1011 10 16.09344 0 0
9:58 pm 21:58 Clear 69 20.7 49 9.7 49 49 SSW 8 13 29.85 1011 10 16.09344 0 0
10:58 pm 22:58 Clear 70 21 47 8.6 45 45 S 5 7 29.85 1011 10 16.09344 0 0
11:58 pm 23:58 Clear 65 18.4 51 10.3 59 59 W 10 17 29.85 1011 10 16.09344 0 0

Powered by AerisWeather